Regional Weather Roundup
Issued by NWS

Home | Current Version | Previous Version | Text Only | Print | Product List | Glossary Off
Versions: 1 2 3 4 5 6 7 8 9 10 11 12 13 14 15 16 17 18 19 20 21 22 23 24 25 26 27 28 29 30 31 32 33 34 35 36 37 38 39 40 41 42 43 44 45 46 47 48 49 50

000
ASUS43 KLOT 270103
RWRIL

ILLINOIS REGIONAL WEATHER ROUNDUP
NATIONAL WEATHER SERVICE CHICAGO/ROMEOVILLE IL
800 PM CDT SUN MAR 26 2017

NOTE: "FAIR" INDICATES FEW OR NO CLOUDS BELOW 12,000 FEET WITH NO
SIGNIFICANT WEATHER AND/OR OBSTRUCTIONS TO VISIBILITY.

* THESE STATIONS ARE NOT UNDER NWS QUALITY CONTROL. THEY ALSO MAY NOT
  REPORT WEATHER SUCH AS PRECIPITATION OR FOG.

ILZ001-002-007-009-015-016-024-270200-
NORTHWEST ILLINOIS

CITY           SKY/WX    TMP DP  RH WIND       PRES   REMARKS
MOLINE         CLOUDY    51  46  83 W13       29.89R
STERLING*      LGT RAIN  53  52  96 W10       29.88R FOG
SAVANNA*       CLOUDY    50  49  95 NW5       29.87R FOG
$$

ILZ003-004-008-010-011-017-018-270200-
NORTH CENTRAL ILLINOIS

CITY           SKY/WX    TMP DP  RH WIND       PRES   REMARKS
ROCKFORD       CLOUDY    54  52  93 SW8       29.87S FOG
FREEPORT*      CLOUDY    49  49  98 NW5       29.87R FOG
ROCHELLE*      LGT RAIN  51  50  97 SW15      29.87R
DE KALB*       CLOUDY    52  51  95 SW10      29.87R
PERU*          CLOUDY    49  48  96 W12       29.89S FOG
$$

ILZ005-006-012>014-019>023-270200-
NORTHEAST ILLINOIS

CITY           SKY/WX    TMP DP  RH WIND       PRES   REMARKS
CHICAGO-OHARE  DRIZZLE   56  51  84 SW8       29.85R
CHICAGO-MIDWAY CLOUDY    55  52  89 SW9       29.86R
AURORA         CLOUDY    53  51  93 SW12      29.87R FOG
LANSING*       RAIN      54  53  96 SW10G16   29.88R
JOLIET*        DRIZZLE   54  54  98 SW7       29.88R
WAUKEGAN       CLOUDY    45  44  97 CALM      29.84R FOG
DUPAGE AIRPORT CLOUDY    53  53 100 SW9       29.85R FOG
WHEELING       CLOUDY    54  53  97 SW8       29.86R
MORRIS*        CLOUDY    51  49  93 W10       29.88R
$$

LMZ740>746-270200-
SOUTHERN LAKE MICHIGAN

STATION/POSITION SKY/WX   TEMP    WIND        PRES    VSBY  WAVE
                          AIR SEA DIR/SP/G                  HT/PER
                          (F)     (DEG/KT/KT) (MB)    (MI)  (FT/S)
HARRISON CRIB              57     240/ 10/ 13   N/A
BURNHAM HARBOR             55     210/  9/ 11   N/A
CALUMET HARBOR             55     210/  7/ 12 1010.5R
BURNS HARBOR               54     240/  8/ 11 1011.9R
MICHIGAN CITY              52     220/ 11/ 12   N/A
$$

ILZ025>027-034>036-040-047-049-050-058-095>099-270200-
WEST-CENTRAL ILLINOIS

CITY           SKY/WX    TMP DP  RH WIND       PRES   REMARKS
QUINCY         CLOUDY    50  45  83 W6        29.94R
GALESBURG*     CLOUDY    49  47  93 W6        29.90S
MACOMB*        CLOUDY    49  48  95 W7        29.95R
JACKSONVILLE*  CLOUDY    51  48  87 W6        29.94R
PITTSFIELD*    CLOUDY    53  48  84 NW6       29.95R
$$

ILZ028>032-037-038-041>044-048-051>054-059>061-270200-
CENTRAL ILLINOIS

CITY           SKY/WX    TMP DP  RH WIND       PRES   REMARKS
PONTIAC        CLOUDY    51  51  98 W10       29.91R
BLOOMINGTON    CLOUDY    49  48  97 W12       29.92R FOG
DECATUR        CLOUDY    55  50  83 W6        29.93R
PEORIA         CLOUDY    51  47  86 W7        29.92R
SPRINGFIELD    CLOUDY    54  49  83 W8        29.94R
TAYLORVILLE    NOT AVBL
$$

ILZ033-039-045-046-055>057-062-063-270200-
EAST-CENTRAL ILLINOIS

CITY           SKY/WX    TMP DP  RH WIND       PRES   REMARKS
CHAMPAIGN      CLOUDY    56  49  77 SW15      29.92R
RANTOUL*       CLOUDY    55  53  94 W9        29.91S
MATTOON        CLOUDY    55  50  83 SW7       29.93S
PARIS*         CLOUDY    55  50  81 SW10      29.94R
$$

ILZ079-100>102-270200-
SOUTHWEST ILLINOIS

CITY           SKY/WX    TMP DP  RH WIND       PRES   REMARKS
ALTON          CLOUDY    54  50  87 W7        29.95R
BELLEVILLE     PTCLDY    56  53  90 CALM      29.93R
CAHOKIA*       CLOUDY    57  50  77 CALM      29.93R
SPARTA*        CLOUDY    57  49  72 SE3       29.95S
$$

ILZ064>066-069>071-074>076-080>082-084>086-088>090-092>094-270200-
SOUTH-CENTRAL ILLINOIS

CITY           SKY/WX    TMP DP  RH WIND       PRES   REMARKS
CARBONDALE     CLOUDY    53  49  86 SE5       29.95S
CAIRO*         MOCLDY    58  53  82 CALM      29.96R
EFFINGHAM*     CLOUDY    55  50  82 S5        29.96S
MARION         PTCLDY    54  43  66 CALM      29.96F
MT. VERNON     CLOUDY    54  48  80 CALM      29.96R
CENTRALIA*     CLOUDY    54  52  91 CALM      29.94F
SALEM*         PTCLDY    56  49  79 SE3       29.94F
$$

ILZ067-068-072-073-078-083-087-091-270200-
SOUTHEAST ILLINOIS

CITY           SKY/WX    TMP DP  RH WIND       PRES   REMARKS
LAWRENCEVILLE  MOCLDY    58  50  75 W8        29.97R
FLORA*         PTCLDY    54  49  86 SW3       29.97R
FAIRFIELD*     CLEAR     55  48  79 CALM      29.95S
HARRISBURG*    PTCLDY    54  49  83 CALM      29.96F
ROBINSON*      CLOUDY    56  50  80 W8        29.97R
CARMI*         PTCLDY    57  47  71 SW3       29.97R
$$

ABBREVIATIONS USED IN REMARKS
   TC - TEMPERATURE IN CELSIUS
  WCI - WIND CHILL INDEX
   HX - HEAT INDEX
  VSB - VISIBILITY
$$





USA.gov is the U.S. government's official web portal to all federal, state and local government web resources and services.